Chillicothe, MO

4:37 AM CST on December 10, 2019 (GMT -0600)
Chillicothe

Weather History for KCDJ - August, 2019

Change the Weather History Date:

Sunday, August 11, 2019

  Actual Average (KIRK) Record (KIRK)
Temperature  
Mean Temperature 78 °F -  
Max Temperature 84 °F 83 °F 100 °F (1941)
Min Temperature 73 °F 60 °F 47 °F (1967)
Cooling Degree Days 12    
Growing Degree Days 28 (Base 50)    
Moisture  
Dew Point 74 °F    
Average Humidity 90    
Maximum Humidity 100    
Minimum Humidity 74    
Precipitation  
Precipitation 1.61 in - - ()
Sea Level Pressure  
Sea Level Pressure 29.93 in    
Wind  
Wind Speed 2 mph (East)    
Max Wind Speed 6 mph    
Max Gust Speed -    
Averages and records for this station are not official NWS values.
T = Trace of Precipitation, MM = Missing Value Source: NWS Daily Summary

Daily Weather History Graph

Daily Weather History Graph

Search for Another Location

Airport or City:

Astronomy

Aug. 11, 2019 Rise Set
Actual Time 6:22 AM CDT 8:16 PM CDT
Civil Twilight 5:53 AM CDT 8:45 PM CDT
Nautical Twilight 5:17 AM CDT 9:20 PM CDT
Astronomical Twilight 4:38 AM CDT 9:59 PM CDT
Moon 5:55 PM CDT (8/11) 2:43 AM CDT (8/11)
Length of Visible Light 14h 52m
Length of Day
13h 53m
Waxing Gibbous, 87% of the Moon is Illuminated
Aug 11
Waxing Gibbous
Aug 15
Full
Aug 23
Last Quarter
Aug 30
New
Sep 5
First Quarter

Hourly Weather History & Observations

Time (CDT) Temp. Heat Index Dew Point Humidity Pressure Visibility Wind Dir Wind Speed Gust Speed Precip Events Conditions
12:52 AM 75.0 °F - 73.9 °F 96% 29.91 in - Calm Calm - N/A   Unknown
2:52 AM 75.0 °F - 73.0 °F 94% 29.88 in - ESE 3.5 mph - N/A   Unknown
3:52 AM 75.9 °F - 73.0 °F 91% 29.88 in - Calm Calm - N/A   Unknown
4:52 AM 75.9 °F - 73.9 °F 94% 29.91 in - East 3.5 mph - N/A   Unknown
5:52 AM 75.0 °F - 73.0 °F 94% 29.91 in - Calm Calm - N/A   Unknown
6:52 AM 75.0 °F - 73.0 °F 94% 29.92 in - Calm Calm - N/A   Unknown
7:52 AM 75.9 °F - 73.9 °F 94% 29.92 in - ESE 3.5 mph - N/A   Unknown
8:52 AM 73.9 °F - 73.0 °F 97% 29.98 in - Variable 5.8 mph - 1.24 in   Unknown
9:52 AM 73.9 °F - 73.9 °F 100% 29.99 in - North 4.6 mph - 0.24 in   Unknown
10:52 AM 75.9 °F - 75.9 °F 100% 29.99 in - Calm Calm - 0.02 in   Unknown
11:52 AM 78.1 °F - 75.9 °F 93% 30.02 in - Calm Calm - N/A   Unknown
12:52 PM 77.0 °F - 75.9 °F 96% 30.00 in - SSW 3.5 mph - 0.08 in   Unknown
1:52 PM 79.0 °F - 75.9 °F 90% 29.94 in - Calm Calm - 0.03 in   Unknown
2:52 PM 79.0 °F - 75.0 °F 88% 29.91 in - Calm Calm - N/A   Unknown
3:52 PM 82.0 °F 89.4 °F 75.9 °F 82% 29.92 in - NE 3.5 mph - N/A   Unknown
4:52 PM 82.0 °F 87.9 °F 73.9 °F 76% 29.92 in - East 3.5 mph - N/A   Unknown
5:52 PM 82.9 °F 89.4 °F 73.9 °F 74% 29.92 in - NNE 5.8 mph - N/A   Unknown
6:52 PM 82.0 °F 88.6 °F 75.0 °F 79% 29.91 in - ESE 3.5 mph - N/A   Unknown
7:52 PM 79.0 °F - 73.9 °F 84% 29.90 in - East 3.5 mph - N/A   Unknown
9:52 PM 77.0 °F - 73.9 °F 90% 29.90 in - Variable 3.5 mph - N/A   Unknown
10:52 PM 77.0 °F - 73.9 °F 90% 29.90 in - ESE 3.5 mph - N/A   Unknown
11:52 PM 77.0 °F - 73.9 °F 90% 29.90 in - Calm Calm - N/A   Unknown